Time,TemperatureF,DewpointF,PressureIn,WindDirection,WindDirectionDegrees,WindSpeedMPH,WindSpeedGustMPH,Humidity,HourlyPrecipIn,Conditions,Clouds,dailyrainin,SoftwareType,DateUTC
2013-07-17 00:01:00,76.9,72.4,29.88,WSW,248,0.7,1.8,86,0.00,,,0.00,WUHU216HW,2013-07-17 04:01:00,
2013-07-17 00:06:00,76.7,72.2,29.89,WSW,248,0.0,1.8,86,0.00,,,0.00,WUHU216HW,2013-07-17 04:06:00,
2013-07-17 00:11:00,76.5,72.0,29.89,WSW,248,0.0,0.7,86,0.00,,,0.00,WUHU216HW,2013-07-17 04:11:00,
2013-07-17 00:16:00,76.5,72.0,29.89,WSW,248,0.0,0.0,86,0.00,,,0.00,WUHU216HW,2013-07-17 04:16:00,
2013-07-17 00:21:00,76.3,71.8,29.88,WSW,248,0.4,0.9,86,0.00,,,0.00,WUHU216HW,2013-07-17 04:21:00,
2013-07-17 00:26:00,76.3,71.8,29.88,WSW,248,0.0,0.9,86,0.00,,,0.00,WUHU216HW,2013-07-17 04:26:00,
2013-07-17 00:31:00,76.1,71.6,29.88,WSW,248,0.0,0.4,86,0.00,,,0.00,WUHU216HW,2013-07-17 04:31:00,
2013-07-17 00:36:00,76.0,71.5,29.89,WSW,248,1.1,1.1,86,0.00,,,0.00,WUHU216HW,2013-07-17 04:36:00,
2013-07-17 00:41:00,76.0,71.5,29.89,WSW,248,0.4,1.1,86,0.00,,,0.00,WUHU216HW,2013-07-17 04:41:00,
2013-07-17 00:46:00,75.8,71.4,29.89,WSW,248,0.0,1.1,86,0.00,,,0.00,WUHU216HW,2013-07-17 04:46:00,
2013-07-17 00:51:00,75.6,71.5,29.89,WSW,248,0.0,0.7,87,0.00,,,0.00,WUHU216HW,2013-07-17 04:51:00,
2013-07-17 00:55:00,75.6,71.5,29.88,WSW,248,0.0,0.0,87,0.00,,,0.00,WUHU216HW,2013-07-17 04:55:00,
2013-07-17 00:59:00,75.4,71.4,29.89,WSW,248,0.0,0.0,87,0.00,,,0.00,WUHU216HW,2013-07-17 04:59:00,
2013-07-17 01:04:00,75.4,71.4,29.89,WSW,248,0.0,0.0,87,0.00,,,0.00,WUHU216HW,2013-07-17 05:04:00,
2013-07-17 01:09:00,75.2,71.2,29.89,WSW,248,0.0,0.4,87,0.00,,,0.00,WUHU216HW,2013-07-17 05:09:00,
2013-07-17 01:14:00,75.2,71.2,29.89,WSW,248,0.0,0.4,87,0.00,,,0.00,WUHU216HW,2013-07-17 05:14:00,
2013-07-17 01:19:00,75.1,71.3,29.89,WSW,248,0.0,0.0,88,0.00,,,0.00,WUHU216HW,2013-07-17 05:19:00,
2013-07-17 01:24:00,75.1,71.3,29.89,WSW,248,0.0,0.0,88,0.00,,,0.00,WUHU216HW,2013-07-17 05:24:00,
2013-07-17 01:29:00,75.1,71.3,29.89,WSW,248,0.0,0.0,88,0.00,,,0.00,WUHU216HW,2013-07-17 05:29:00,
2013-07-17 01:34:00,75.1,71.3,29.89,WSW,248,0.0,0.0,88,0.00,,,0.00,WUHU216HW,2013-07-17 05:34:00,
2013-07-17 01:39:00,75.2,71.2,29.89,WSW,248,0.0,0.0,87,0.00,,,0.00,WUHU216HW,2013-07-17 05:39:00,
2013-07-17 01:44:00,75.2,71.2,29.89,WSW,248,0.4,0.9,87,0.00,,,0.00,WUHU216HW,2013-07-17 05:44:00,
2013-07-17 01:49:00,75.1,71.0,29.90,WSW,248,0.0,0.9,87,0.00,,,0.00,WUHU216HW,2013-07-17 05:49:00,
2013-07-17 01:54:00,75.2,71.2,29.90,WSW,248,0.0,0.4,87,0.00,,,0.00,WUHU216HW,2013-07-17 05:54:00,
2013-07-17 01:59:00,75.1,71.0,29.90,WSW,248,0.7,1.1,87,0.00,,,0.00,WUHU216HW,2013-07-17 05:59:00,
2013-07-17 02:04:00,75.1,71.0,29.89,WSW,248,0.0,1.1,87,0.00,,,0.00,WUHU216HW,2013-07-17 06:04:00,
2013-07-17 02:09:00,75.1,71.0,29.89,WSW,248,0.0,1.1,87,0.00,,,0.00,WUHU216HW,2013-07-17 06:09:00,
2013-07-17 02:14:00,75.1,71.0,29.89,WSW,248,0.0,0.0,87,0.00,,,0.00,WUHU216HW,2013-07-17 06:14:00,
2013-07-17 02:19:00,74.9,70.8,29.89,WSW,248,0.0,0.0,87,0.00,,,0.00,WUHU216HW,2013-07-17 06:19:00,
2013-07-17 02:24:00,74.9,70.8,29.89,WSW,248,0.0,0.0,87,0.00,,,0.00,WUHU216HW,2013-07-17 06:24:00,
2013-07-17 02:29:00,74.7,70.9,29.89,WSW,248,0.0,0.0,88,0.00,,,0.00,WUHU216HW,2013-07-17 06:29:00,
2013-07-17 02:34:00,74.5,70.7,29.89,WSW,248,0.0,0.0,88,0.00,,,0.00,WUHU216HW,2013-07-17 06:34:00,
2013-07-17 02:39:00,74.5,70.7,29.89,WSW,248,0.0,0.0,88,0.00,,,0.00,WUHU216HW,2013-07-17 06:39:00,
2013-07-17 02:44:00,74.5,70.7,29.89,WSW,248,0.0,0.0,88,0.00,,,0.00,WUHU216HW,2013-07-17 06:44:00,
2013-07-17 02:49:00,74.5,70.7,29.89,WSW,248,0.0,0.0,88,0.00,,,0.00,WUHU216HW,2013-07-17 06:49:00,
2013-07-17 02:54:00,74.5,70.7,29.90,WSW,248,0.0,0.0,88,0.00,,,0.00,WUHU216HW,2013-07-17 06:54:00,
2013-07-17 02:59:00,74.3,70.6,29.89,WSW,248,0.9,0.9,88,0.00,,,0.00,WUHU216HW,2013-07-17 06:59:00,
2013-07-17 03:04:00,74.3,70.6,29.89,WSW,248,1.1,1.3,88,0.00,,,0.00,WUHU216HW,2013-07-17 07:04:00,
2013-07-17 03:09:00,74.2,70.4,29.89,WSW,248,1.1,1.8,88,0.00,,,0.00,WUHU216HW,2013-07-17 07:09:00,
2013-07-17 03:14:00,74.2,70.4,29.89,WSW,248,0.9,1.8,88,0.00,,,0.00,WUHU216HW,2013-07-17 07:14:00,
2013-07-17 03:19:00,74.0,70.6,29.89,WSW,248,1.1,1.6,89,0.00,,,0.00,WUHU216HW,2013-07-17 07:19:00,
2013-07-17 03:24:00,73.8,70.4,29.89,WSW,248,0.2,1.1,89,0.00,,,0.00,WUHU216HW,2013-07-17 07:24:00,
2013-07-17 03:29:00,73.8,70.4,29.89,WSW,248,1.1,1.1,89,0.00,,,0.00,WUHU216HW,2013-07-17 07:29:00,
2013-07-17 03:34:00,73.6,70.2,29.89,WSW,248,0.4,1.1,89,0.00,,,0.00,WUHU216HW,2013-07-17 07:34:00,
2013-07-17 03:39:00,73.6,70.2,29.89,WSW,248,1.1,1.1,89,0.00,,,0.00,WUHU216HW,2013-07-17 07:39:00,
2013-07-17 03:44:00,73.4,70.0,29.89,WSW,248,0.9,1.1,89,0.00,,,0.00,WUHU216HW,2013-07-17 07:44:00,
2013-07-17 03:49:00,73.4,70.0,29.89,WSW,248,1.1,1.3,89,0.00,,,0.00,WUHU216HW,2013-07-17 07:49:00,
2013-07-17 03:54:00,73.3,69.8,29.89,WSW,248,0.9,1.3,89,0.00,,,0.00,WUHU216HW,2013-07-17 07:54:00,
2013-07-17 03:59:00,73.3,69.8,29.89,WSW,248,0.7,1.1,89,0.00,,,0.00,WUHU216HW,2013-07-17 07:59:00,
2013-07-17 04:04:00,73.1,69.7,29.89,WSW,248,0.9,1.1,89,0.00,,,0.00,WUHU216HW,2013-07-17 08:04:00,
2013-07-17 04:09:00,73.1,69.7,29.89,WSW,248,0.0,1.1,89,0.00,,,0.00,WUHU216HW,2013-07-17 08:09:00,
2013-07-17 04:14:00,72.9,69.5,29.89,WSW,248,0.0,1.1,89,0.00,,,0.00,WUHU216HW,2013-07-17 08:14:00,
2013-07-17 04:19:00,72.9,69.5,29.89,WSW,248,0.0,0.0,89,0.00,,,0.00,WUHU216HW,2013-07-17 08:19:00,
2013-07-17 04:24:00,72.7,69.3,29.90,WSW,248,0.0,0.0,89,0.00,,,0.00,WUHU216HW,2013-07-17 08:24:00,
2013-07-17 04:29:00,72.5,69.1,29.89,WSW,248,0.0,0.0,89,0.00,,,0.00,WUHU216HW,2013-07-17 08:29:00,
2013-07-17 04:34:00,72.5,69.1,29.90,WSW,248,0.0,0.0,89,0.00,,,0.00,WUHU216HW,2013-07-17 08:34:00,
2013-07-17 04:39:00,72.4,68.9,29.89,WSW,248,0.0,0.0,89,0.00,,,0.00,WUHU216HW,2013-07-17 08:39:00,
2013-07-17 04:44:00,72.4,68.9,29.89,WSW,248,0.0,1.1,89,0.00,,,0.00,WUHU216HW,2013-07-17 08:44:00,
2013-07-17 04:49:00,72.4,69.3,29.90,WSW,248,0.0,1.1,90,0.00,,,0.00,WUHU216HW,2013-07-17 08:49:00,
2013-07-17 04:54:00,72.4,69.3,29.90,WSW,248,0.0,1.1,90,0.00,,,0.00,WUHU216HW,2013-07-17 08:54:00,
2013-07-17 04:59:00,72.4,69.3,29.89,WSW,248,0.0,0.7,90,0.00,,,0.00,WUHU216HW,2013-07-17 08:59:00,
2013-07-17 06:00:00,71.8,69.0,29.91,WSW,248,0.0,0.0,91,0.00,,,0.00,WUHU216HW,2013-07-17 10:00:00,
2013-07-17 06:05:00,71.6,68.9,29.91,WSW,248,0.0,0.0,91,0.00,,,0.00,WUHU216HW,2013-07-17 10:05:00,
2013-07-17 06:10:00,71.6,68.9,29.91,WSW,248,0.0,0.0,91,0.00,,,0.00,WUHU216HW,2013-07-17 10:10:00,
2013-07-17 06:15:00,71.6,68.9,29.91,WSW,248,0.0,0.0,91,0.00,,,0.00,WUHU216HW,2013-07-17 10:15:00,
2013-07-17 06:20:00,71.6,68.9,29.91,WSW,248,0.0,0.0,91,0.00,,,0.00,WUHU216HW,2013-07-17 10:20:00,
2013-07-17 06:25:00,71.6,68.9,29.91,WSW,248,0.9,0.9,91,0.00,,,0.00,WUHU216HW,2013-07-17 10:25:00,
2013-07-17 06:30:00,71.6,68.9,29.90,WSW,248,1.3,1.6,91,0.00,,,0.00,WUHU216HW,2013-07-17 10:30:00,
2013-07-17 06:35:00,71.6,68.9,29.90,WSW,248,1.1,1.6,91,0.00,,,0.00,WUHU216HW,2013-07-17 10:35:00,
2013-07-17 06:40:00,71.8,69.0,29.91,WSW,248,1.1,1.8,91,0.00,,,0.00,WUHU216HW,2013-07-17 10:40:00,
2013-07-17 06:45:00,71.8,69.0,29.91,WSW,248,0.7,1.8,91,0.00,,,0.00,WUHU216HW,2013-07-17 10:45:00,
2013-07-17 06:50:00,72.0,69.2,29.91,WSW,248,0.2,1.6,91,0.00,,,0.00,WUHU216HW,2013-07-17 10:50:00,
2013-07-17 06:55:00,72.0,69.2,29.91,WSW,248,0.0,0.9,91,0.00,,,0.00,WUHU216HW,2013-07-17 10:55:00,
2013-07-17 07:00:00,72.2,69.4,29.91,WSW,248,1.1,1.1,91,0.00,,,0.00,WUHU216HW,2013-07-17 11:00:00,
2013-07-17 07:05:00,72.4,69.6,29.91,West,270,0.0,1.6,91,0.00,,,0.00,WUHU216HW,2013-07-17 11:05:00,
2013-07-17 07:10:00,72.7,69.9,29.92,SSE,158,0.0,1.6,91,0.00,,,0.00,WUHU216HW,2013-07-17 11:10:00,
2013-07-17 07:15:00,72.9,70.1,29.92,WSW,248,1.1,1.1,91,0.00,,,0.00,WUHU216HW,2013-07-17 11:15:00,
2013-07-17 07:20:00,73.3,70.8,29.92,West,270,0.2,1.6,92,0.00,,,0.00,WUHU216HW,2013-07-17 11:20:00,
2013-07-17 07:25:00,73.8,71.4,29.92,West,270,1.1,1.6,92,0.00,,,0.00,WUHU216HW,2013-07-17 11:25:00,
2013-07-17 07:30:00,74.2,71.7,29.92,WSW,248,0.4,2.5,92,0.00,,,0.00,WUHU216HW,2013-07-17 11:30:00,
2013-07-17 07:35:00,74.7,71.9,29.92,West,270,0.4,2.5,91,0.00,,,0.00,WUHU216HW,2013-07-17 11:35:00,
2013-07-17 07:40:00,75.2,72.5,29.92,West,270,0.4,2.5,91,0.00,,,0.00,WUHU216HW,2013-07-17 11:40:00,
2013-07-17 07:45:00,75.8,72.4,29.92,West,270,1.6,2.5,89,0.00,,,0.00,WUHU216HW,2013-07-17 11:45:00,
2013-07-17 07:50:00,76.1,72.7,29.92,West,270,2.7,2.7,89,0.00,,,0.00,WUHU216HW,2013-07-17 11:50:00,
2013-07-17 07:55:00,76.5,72.7,29.92,SSW,203,0.4,2.7,88,0.00,,,0.00,WUHU216HW,2013-07-17 11:55:00,
2013-07-17 08:00:00,76.9,72.7,29.93,West,270,1.1,2.7,87,0.00,,,0.00,WUHU216HW,2013-07-17 12:00:00,
2013-07-17 08:05:00,77.0,72.9,29.92,West,270,0.0,3.4,87,0.00,,,0.00,WUHU216HW,2013-07-17 12:05:00,
2013-07-17 08:10:00,77.4,73.3,29.93,WNW,293,1.1,3.4,87,0.00,,,0.00,WUHU216HW,2013-07-17 12:10:00,
2013-07-17 08:15:00,77.6,73.1,29.93,SSW,203,3.1,3.1,86,0.00,,,0.00,WUHU216HW,2013-07-17 12:15:00,
2013-07-17 08:20:00,77.9,73.4,29.93,NNW,338,0.4,3.1,86,0.00,,,0.00,WUHU216HW,2013-07-17 12:20:00,
2013-07-17 08:25:00,78.5,73.6,29.92,West,270,1.1,3.4,85,0.00,,,0.00,WUHU216HW,2013-07-17 12:25:00,
2013-07-17 08:30:00,78.8,73.6,29.92,WSW,248,1.8,3.4,84,0.00,,,0.00,WUHU216HW,2013-07-17 12:30:00,
2013-07-17 08:35:00,79.2,74.0,29.93,WSW,248,0.0,1.8,84,0.00,,,0.00,WUHU216HW,2013-07-17 12:35:00,
2013-07-17 08:40:00,79.4,73.8,29.92,SW,225,0.7,2.5,83,0.00,,,0.00,WUHU216HW,2013-07-17 12:40:00,
2013-07-17 08:45:00,79.6,74.0,29.92,West,270,0.9,2.5,83,0.00,,,0.00,WUHU216HW,2013-07-17 12:45:00,
2013-07-17 08:50:00,79.9,74.4,29.92,SW,225,0.0,1.8,83,0.00,,,0.00,WUHU216HW,2013-07-17 12:50:00,
2013-07-17 08:55:00,80.1,74.5,29.92,NNW,338,0.0,1.8,83,0.00,,,0.00,WUHU216HW,2013-07-17 12:55:00,
2013-07-17 09:00:00,80.5,74.5,29.92,WSW,248,0.0,2.5,82,0.00,,,0.00,WUHU216HW,2013-07-17 13:00:00,
2013-07-17 09:05:00,80.6,74.7,29.92,NW,315,0.0,2.5,82,0.00,,,0.00,WUHU216HW,2013-07-17 13:05:00,
2013-07-17 09:10:00,81.2,74.9,29.92,SW,225,0.4,1.6,81,0.00,,,0.00,WUHU216HW,2013-07-17 13:10:00,
2013-07-17 09:15:00,81.5,75.6,29.91,WSW,248,0.4,1.6,82,0.00,,,0.00,WUHU216HW,2013-07-17 13:15:00,
2013-07-17 09:20:00,82.1,76.2,29.92,NW,315,0.0,2.2,82,0.00,,,0.00,WUHU216HW,2013-07-17 13:20:00,
2013-07-17 09:24:00,82.8,76.4,29.92,SW,225,1.1,2.2,81,0.00,,,0.00,WUHU216HW,2013-07-17 13:24:00,
2013-07-17 09:29:00,83.2,76.1,29.91,WNW,293,0.7,3.1,79,0.00,,,0.00,WUHU216HW,2013-07-17 13:29:00,
2013-07-17 09:34:00,83.5,76.8,29.90,WNW,293,0.0,3.1,80,0.00,,,0.00,WUHU216HW,2013-07-17 13:34:00,
2013-07-17 09:40:00,84.1,76.9,29.90,SSW,203,1.8,2.2,79,0.00,,,0.00,WUHU216HW,2013-07-17 13:40:00,
2013-07-17 09:44:00,84.4,76.4,29.90,SSW,203,1.8,5.6,77,0.00,,,0.00,WUHU216HW,2013-07-17 13:44:00,
2013-07-17 09:50:00,85.0,76.1,29.90,SW,225,0.9,5.6,75,0.00,,,0.00,WUHU216HW,2013-07-17 13:50:00,
2013-07-17 09:55:00,85.5,76.7,29.90,West,270,0.0,4.7,75,0.00,,,0.00,WUHU216HW,2013-07-17 13:55:00,
2013-07-17 10:00:00,85.7,76.9,29.90,WSW,248,3.6,3.6,75,0.00,,,0.00,WUHU216HW,2013-07-17 14:00:00,
2013-07-17 10:05:00,86.0,77.2,29.90,West,270,0.4,3.6,75,0.00,,,0.00,WUHU216HW,2013-07-17 14:05:00,
2013-07-17 10:10:00,86.0,76.9,29.90,WSW,248,0.0,3.6,74,0.00,,,0.00,WUHU216HW,2013-07-17 14:10:00,
2013-07-17 10:15:00,86.0,77.2,29.89,NE,45,0.0,2.7,75,0.00,,,0.00,WUHU216HW,2013-07-17 14:15:00,
2013-07-17 10:20:00,86.0,77.2,29.89,West,270,0.7,2.7,75,0.00,,,0.00,WUHU216HW,2013-07-17 14:20:00,
2013-07-17 10:25:00,86.4,77.1,29.89,SW,225,1.1,1.1,74,0.00,,,0.00,WUHU216HW,2013-07-17 14:25:00,
2013-07-17 10:30:00,87.1,77.1,29.89,WSW,248,1.1,3.6,72,0.00,,,0.00,WUHU216HW,2013-07-17 14:30:00,
2013-07-17 10:35:00,88.2,77.7,29.89,SW,225,2.7,3.6,71,0.00,,,0.00,WUHU216HW,2013-07-17 14:35:00,
2013-07-17 10:40:00,89.3,77.9,29.88,North,0,0.4,2.7,69,0.00,,,0.00,WUHU216HW,2013-07-17 14:40:00,
2013-07-17 10:45:00,90.0,79.4,29.89,North,0,0.7,2.7,71,0.00,,,0.00,WUHU216HW,2013-07-17 14:45:00,
2013-07-17 10:50:00,91.4,79.4,29.89,North,0,0.0,0.9,68,0.00,,,0.00,WUHU216HW,2013-07-17 14:50:00,
2013-07-17 10:55:00,91.8,78.8,29.89,WSW,248,0.9,3.4,66,0.00,,,0.00,WUHU216HW,2013-07-17 14:55:00,
2013-07-17 10:59:00,92.2,78.7,29.89,West,270,0.9,3.4,65,0.00,,,0.00,WUHU216HW,2013-07-17 14:59:00,
2013-07-17 11:04:00,92.5,78.1,29.89,SW,225,1.3,3.1,63,0.00,,,0.00,WUHU216HW,2013-07-17 15:04:00,
2013-07-17 11:09:00,92.2,78.7,29.88,North,0,0.4,3.1,65,0.00,,,0.00,WUHU216HW,2013-07-17 15:09:00,
2013-07-17 11:14:00,92.2,77.8,29.89,NW,315,0.4,3.4,63,0.00,,,0.00,WUHU216HW,2013-07-17 15:14:00,
2013-07-17 11:19:00,92.2,78.2,29.89,NNE,23,0.7,3.4,64,0.00,,,0.00,WUHU216HW,2013-07-17 15:19:00,
2013-07-17 11:24:00,92.5,78.6,29.88,NNW,338,1.1,4.3,64,0.00,,,0.00,WUHU216HW,2013-07-17 15:24:00,
2013-07-17 11:29:00,93.6,79.6,29.88,North,0,0.4,4.3,64,0.00,,,0.00,WUHU216HW,2013-07-17 15:29:00,
2013-07-17 11:34:00,94.3,78.8,29.88,North,0,1.1,3.4,61,0.00,,,0.00,WUHU216HW,2013-07-17 15:34:00,
2013-07-17 11:39:00,94.1,78.7,29.88,East,90,0.7,3.4,61,0.00,,,0.00,WUHU216HW,2013-07-17 15:39:00,
2013-07-17 11:44:00,93.4,78.5,29.88,WNW,293,0.4,2.5,62,0.00,,,0.00,WUHU216HW,2013-07-17 15:44:00,
2013-07-17 11:49:00,93.6,77.8,29.88,WNW,293,2.2,2.2,60,0.00,,,0.00,WUHU216HW,2013-07-17 15:49:00,
2013-07-17 11:54:00,94.0,79.5,29.87,NNE,23,0.2,2.2,63,0.00,,,0.00,WUHU216HW,2013-07-17 15:54:00,
2013-07-17 11:59:00,94.0,78.5,29.87,WNW,293,0.4,2.2,61,0.00,,,0.00,WUHU216HW,2013-07-17 15:59:00,
2013-07-17 12:04:00,93.6,78.2,29.87,ESE,113,0.0,1.8,61,0.00,,,0.00,WUHU216HW,2013-07-17 16:04:00,
2013-07-17 12:09:00,92.9,77.9,29.87,ENE,68,0.0,0.9,62,0.00,,,0.00,WUHU216HW,2013-07-17 16:09:00,
2013-07-17 12:14:00,93.2,79.3,29.87,SW,225,0.4,2.5,64,0.00,,,0.00,WUHU216HW,2013-07-17 16:14:00,
2013-07-17 12:19:00,93.2,78.3,29.87,South,180,0.0,2.5,62,0.00,,,0.00,WUHU216HW,2013-07-17 16:19:00,
2013-07-17 12:24:00,93.6,76.6,29.87,NNE,23,1.1,3.4,58,0.00,,,0.00,WUHU216HW,2013-07-17 16:24:00,
2013-07-17 12:29:00,93.4,76.4,29.87,NNE,23,0.4,3.4,58,0.00,,,0.00,WUHU216HW,2013-07-17 16:29:00,
2013-07-17 12:34:00,93.2,77.4,29.86,East,90,0.4,2.9,60,0.00,,,0.00,WUHU216HW,2013-07-17 16:34:00,
2013-07-17 12:39:00,93.6,76.6,29.86,NW,315,1.8,5.4,58,0.00,,,0.00,WUHU216HW,2013-07-17 16:39:00,
2013-07-17 12:44:00,94.0,78.5,29.86,West,270,0.7,5.4,61,0.00,,,0.00,WUHU216HW,2013-07-17 16:44:00,
2013-07-17 12:49:00,94.7,77.6,29.87,NW,315,0.0,4.7,58,0.00,,,0.00,WUHU216HW,2013-07-17 16:49:00,
2013-07-17 12:54:00,94.3,76.1,29.86,East,90,2.5,3.8,56,0.00,,,0.00,WUHU216HW,2013-07-17 16:54:00,
2013-07-17 12:59:00,94.3,77.3,29.86,WNW,293,0.4,3.8,58,0.00,,,0.00,WUHU216HW,2013-07-17 16:59:00,
2013-07-17 13:04:00,94.0,77.0,29.87,NW,315,0.4,2.5,58,0.00,,,0.00,WUHU216HW,2013-07-17 17:04:00,
2013-07-17 13:09:00,94.1,77.1,29.87,WNW,293,1.3,1.8,58,0.00,,,0.00,WUHU216HW,2013-07-17 17:09:00,
2013-07-17 13:14:00,94.5,76.9,29.87,North,0,0.9,3.6,57,0.00,,,0.00,WUHU216HW,2013-07-17 17:14:00,
2013-07-17 13:19:00,95.0,76.9,29.86,WSW,248,3.1,6.3,56,0.00,,,0.00,WUHU216HW,2013-07-17 17:19:00,
2013-07-17 13:24:00,95.6,76.8,29.86,North,0,0.2,6.3,55,0.00,,,0.00,WUHU216HW,2013-07-17 17:24:00,
2013-07-17 13:29:00,95.0,76.9,29.86,NW,315,0.4,2.7,56,0.00,,,0.00,WUHU216HW,2013-07-17 17:29:00,
2013-07-17 13:34:00,94.3,76.8,29.86,NNE,23,0.4,1.8,57,0.00,,,0.00,WUHU216HW,2013-07-17 17:34:00,
2013-07-17 13:39:00,94.9,76.7,29.86,WSW,248,1.8,5.6,56,0.00,,,0.00,WUHU216HW,2013-07-17 17:39:00,
2013-07-17 13:44:00,95.2,75.4,29.85,West,270,2.5,5.6,53,0.00,,,0.00,WUHU216HW,2013-07-17 17:44:00,
2013-07-17 13:49:00,95.2,77.6,29.85,NE,45,0.2,4.0,57,0.00,,,0.00,WUHU216HW,2013-07-17 17:49:00,
2013-07-17 13:54:00,95.6,77.3,29.84,North,0,0.0,4.0,56,0.00,,,0.00,WUHU216HW,2013-07-17 17:54:00,
2013-07-17 13:59:00,95.9,77.7,29.84,SW,225,0.2,1.8,56,0.00,,,0.00,WUHU216HW,2013-07-17 17:59:00,
2013-07-17 14:04:00,96.1,77.3,29.85,WSW,248,2.0,3.6,55,0.00,,,0.00,WUHU216HW,2013-07-17 18:04:00,
2013-07-17 14:09:00,96.8,77.4,29.84,WSW,248,1.8,3.6,54,0.00,,,0.00,WUHU216HW,2013-07-17 18:09:00,
2013-07-17 14:14:00,96.8,77.9,29.84,West,270,2.5,5.4,55,0.00,,,0.00,WUHU216HW,2013-07-17 18:14:00,
2013-07-17 14:19:00,97.2,77.8,29.84,SSW,203,0.2,5.4,54,0.00,,,0.00,WUHU216HW,2013-07-17 18:19:00,
2013-07-17 14:24:00,97.9,76.8,29.84,NNW,338,0.4,3.1,51,0.00,,,0.00,WUHU216HW,2013-07-17 18:24:00,
2013-07-17 14:29:00,98.8,79.3,29.84,WSW,248,3.4,3.4,54,0.00,,,0.00,WUHU216HW,2013-07-17 18:29:00,
2013-07-17 14:34:00,98.8,77.1,29.84,SSW,203,2.0,4.9,50,0.00,,,0.00,WUHU216HW,2013-07-17 18:34:00,
2013-07-17 14:39:00,98.8,76.3,29.84,SW,225,1.6,6.3,49,0.00,,,0.00,WUHU216HW,2013-07-17 18:39:00,
2013-07-17 14:44:00,98.8,75.1,29.84,WSW,248,2.7,6.3,47,0.00,,,0.00,WUHU216HW,2013-07-17 18:44:00,
2013-07-17 14:49:00,99.4,76.9,29.83,NW,315,0.7,3.4,49,0.00,,,0.00,WUHU216HW,2013-07-17 18:49:00,
2013-07-17 14:54:00,97.9,76.2,29.83,West,270,0.0,2.9,50,0.00,,,0.00,WUHU216HW,2013-07-17 18:54:00,
2013-07-17 14:59:00,96.8,76.9,29.83,North,0,0.4,1.6,53,0.00,,,0.00,WUHU216HW,2013-07-17 18:59:00,
2013-07-17 15:04:00,96.8,77.4,29.82,North,0,0.0,1.6,54,0.00,,,0.00,WUHU216HW,2013-07-17 19:04:00,
2013-07-17 15:09:00,97.9,78.4,29.82,SW,225,1.8,3.4,54,0.00,,,0.00,WUHU216HW,2013-07-17 19:09:00,
2013-07-17 15:14:00,99.2,78.0,29.81,SW,225,1.8,3.4,51,0.00,,,0.00,WUHU216HW,2013-07-17 19:14:00,
2013-07-17 15:19:00,98.8,77.1,29.81,WSW,248,1.6,3.8,50,0.00,,,0.00,WUHU216HW,2013-07-17 19:19:00,
2013-07-17 15:24:00,98.3,77.1,29.81,NNW,338,0.4,3.8,51,0.00,,,0.00,WUHU216HW,2013-07-17 19:24:00,
2013-07-17 15:29:00,99.5,78.8,29.81,WNW,293,1.3,3.8,52,0.00,,,0.00,WUHU216HW,2013-07-17 19:29:00,
2013-07-17 15:34:00,100.8,76.1,29.81,SSE,158,4.7,4.9,46,0.00,,,0.00,WUHU216HW,2013-07-17 19:34:00,
2013-07-17 15:39:00,100.3,75.7,29.81,SW,225,3.4,5.1,46,0.00,,,0.00,WUHU216HW,2013-07-17 19:39:00,
2013-07-17 15:44:00,98.8,75.7,29.81,West,270,1.6,5.1,48,0.00,,,0.00,WUHU216HW,2013-07-17 19:44:00,
2013-07-17 15:49:00,97.2,76.2,29.81,WSW,248,1.1,5.1,51,0.00,,,0.00,WUHU216HW,2013-07-17 19:49:00,
2013-07-17 15:54:00,96.7,76.1,29.81,SW,225,2.5,5.1,52,0.00,,,0.00,WUHU216HW,2013-07-17 19:54:00,
2013-07-17 15:59:00,95.8,76.4,29.81,SSW,203,1.8,3.4,54,0.00,,,0.00,WUHU216HW,2013-07-17 19:59:00,
2013-07-17 16:04:00,94.7,76.0,29.81,WSW,248,1.1,5.8,55,0.00,,,0.00,WUHU216HW,2013-07-17 20:04:00,
2013-07-17 16:09:00,94.7,77.0,29.81,SW,225,2.5,5.8,57,0.00,,,0.00,WUHU216HW,2013-07-17 20:09:00,
2013-07-17 16:14:00,94.3,76.8,29.81,WSW,248,0.9,4.5,57,0.00,,,0.00,WUHU216HW,2013-07-17 20:14:00,
2013-07-17 16:19:00,94.3,76.8,29.81,NW,315,1.1,4.5,57,0.00,,,0.00,WUHU216HW,2013-07-17 20:19:00,
2013-07-17 16:24:00,94.1,77.1,29.81,West,270,1.1,2.5,58,0.00,,,0.00,WUHU216HW,2013-07-17 20:24:00,
2013-07-17 16:29:00,94.1,77.1,29.81,NE,45,1.1,2.2,58,0.00,,,0.00,WUHU216HW,2013-07-17 20:29:00,
2013-07-17 16:34:00,94.1,76.6,29.81,NW,315,0.9,2.7,57,0.00,,,0.00,WUHU216HW,2013-07-17 20:34:00,
2013-07-17 16:39:00,94.3,77.3,29.81,ENE,68,0.9,2.7,58,0.00,,,0.00,WUHU216HW,2013-07-17 20:39:00,
2013-07-17 16:44:00,95.0,77.4,29.80,NNW,338,0.0,2.5,57,0.00,,,0.00,WUHU216HW,2013-07-17 20:44:00,
2013-07-17 16:49:00,96.3,78.0,29.80,West,270,2.9,3.1,56,0.00,,,0.00,WUHU216HW,2013-07-17 20:49:00,
2013-07-17 16:54:00,97.6,77.5,29.80,WNW,293,1.1,4.0,53,0.00,,,0.00,WUHU216HW,2013-07-17 20:54:00,
2013-07-17 16:59:00,97.9,77.3,29.79,West,270,1.1,4.0,52,0.00,,,0.00,WUHU216HW,2013-07-17 20:59:00,
2013-07-17 17:04:00,96.7,76.1,29.79,SSW,203,1.1,6.0,52,0.00,,,0.00,WUHU216HW,2013-07-17 21:04:00,
2013-07-17 17:09:00,95.8,75.9,29.79,WSW,248,0.4,6.0,53,0.00,,,0.00,WUHU216HW,2013-07-17 21:09:00,
2013-07-17 17:14:00,95.9,76.6,29.79,SW,225,0.0,4.5,54,0.00,,,0.00,WUHU216HW,2013-07-17 21:14:00,
2013-07-17 17:19:00,95.9,76.6,29.79,North,0,1.1,4.7,54,0.00,,,0.00,WUHU216HW,2013-07-17 21:19:00,
2013-07-17 17:24:00,96.5,77.0,29.79,WSW,248,1.8,4.7,54,0.00,,,0.00,WUHU216HW,2013-07-17 21:24:00,
2013-07-17 17:29:00,97.6,77.0,29.78,West,270,4.3,4.3,52,0.00,,,0.00,WUHU216HW,2013-07-17 21:29:00,
2013-07-17 17:34:00,97.6,76.4,29.79,SSW,203,1.1,4.7,51,0.00,,,0.00,WUHU216HW,2013-07-17 21:34:00,
2013-07-17 17:39:00,95.9,76.1,29.79,WSW,248,4.0,6.3,53,0.00,,,0.00,WUHU216HW,2013-07-17 21:39:00,
2013-07-17 17:44:00,94.3,76.1,29.79,WNW,293,2.5,6.3,56,0.00,,,0.00,WUHU216HW,2013-07-17 21:44:00,
2013-07-17 17:49:00,93.8,76.8,29.80,SSW,203,0.4,5.8,58,0.00,,,0.00,WUHU216HW,2013-07-17 21:49:00,
2013-07-17 17:54:00,93.2,76.3,29.80,North,0,0.2,2.7,58,0.00,,,0.00,WUHU216HW,2013-07-17 21:54:00,
2013-07-17 17:59:00,93.1,76.2,29.80,NNW,338,0.2,2.5,58,0.00,,,0.00,WUHU216HW,2013-07-17 21:59:00,
2013-07-17 18:04:00,92.5,76.7,29.80,West,270,0.9,3.6,60,0.00,,,0.00,WUHU216HW,2013-07-17 22:04:00,
2013-07-17 18:09:00,92.2,75.3,29.79,WSW,248,2.5,4.3,58,0.00,,,0.00,WUHU216HW,2013-07-17 22:09:00,
2013-07-17 18:14:00,91.8,75.4,29.79,WSW,248,0.2,4.3,59,0.00,,,0.00,WUHU216HW,2013-07-17 22:14:00,
2013-07-17 18:19:00,91.6,75.3,29.78,SSW,203,0.4,3.4,59,0.00,,,0.00,WUHU216HW,2013-07-17 22:19:00,
2013-07-17 18:24:00,91.3,75.4,29.78,WSW,248,1.8,3.4,60,0.00,,,0.00,WUHU216HW,2013-07-17 22:24:00,
2013-07-17 18:29:00,90.9,76.1,29.78,SW,225,1.1,4.5,62,0.00,,,0.00,WUHU216HW,2013-07-17 22:29:00,
2013-07-17 18:34:00,90.4,75.6,29.78,NNW,338,0.2,4.5,62,0.00,,,0.00,WUHU216HW,2013-07-17 22:34:00,
2013-07-17 18:39:00,90.0,75.7,29.78,WSW,248,1.1,3.4,63,0.00,,,0.00,WUHU216HW,2013-07-17 22:39:00,
2013-07-17 18:44:00,89.8,76.1,29.78,West,270,1.8,3.8,64,0.00,,,0.00,WUHU216HW,2013-07-17 22:44:00,
2013-07-17 18:49:00,89.6,76.8,29.78,West,270,1.6,3.8,66,0.00,,,0.00,WUHU216HW,2013-07-17 22:49:00,
2013-07-17 18:54:00,89.6,76.3,29.78,SW,225,1.6,3.4,65,0.00,,,0.00,WUHU216HW,2013-07-17 22:54:00,
2013-07-17 18:59:00,89.3,76.4,29.78,WNW,293,2.5,4.3,66,0.00,,,0.00,WUHU216HW,2013-07-17 22:59:00,
2013-07-17 19:04:00,88.9,76.2,29.78,WNW,293,3.1,4.3,66,0.00,,,0.00,WUHU216HW,2013-07-17 23:04:00,
2013-07-17 19:09:00,88.6,75.8,29.78,West,270,3.8,4.0,66,0.00,,,0.00,WUHU216HW,2013-07-17 23:09:00,
2013-07-17 19:14:00,88.4,76.1,29.78,WSW,248,1.6,4.0,67,0.00,,,0.00,WUHU216HW,2013-07-17 23:14:00,
2013-07-17 19:19:00,88.2,75.9,29.78,NW,315,0.2,3.8,67,0.00,,,0.00,WUHU216HW,2013-07-17 23:19:00,
2013-07-17 19:24:00,87.8,75.5,29.78,West,270,0.0,3.1,67,0.00,,,0.00,WUHU216HW,2013-07-17 23:24:00,
2013-07-17 19:29:00,87.8,75.5,29.78,WNW,293,0.4,2.7,67,0.00,,,0.00,WUHU216HW,2013-07-17 23:29:00,
2013-07-17 19:34:00,87.8,75.5,29.78,West,270,3.1,3.1,67,0.00,,,0.00,WUHU216HW,2013-07-17 23:34:00,
2013-07-17 19:39:00,87.5,75.2,29.78,West,270,3.8,4.0,67,0.00,,,0.00,WUHU216HW,2013-07-17 23:39:00,
2013-07-17 19:44:00,87.1,74.9,29.78,West,270,2.0,4.9,67,0.00,,,0.00,WUHU216HW,2013-07-17 23:44:00,
2013-07-17 19:49:00,86.9,74.7,29.78,West,270,0.0,4.9,67,0.00,,,0.00,WUHU216HW,2013-07-17 23:49:00,
2013-07-17 19:54:00,86.8,74.5,29.78,WSW,248,1.3,2.7,67,0.00,,,0.00,WUHU216HW,2013-07-17 23:54:00,
2013-07-17 19:59:00,86.8,75.0,29.78,West,270,2.5,3.6,68,0.00,,,0.00,WUHU216HW,2013-07-17 23:59:00,
2013-07-17 20:04:00,86.4,74.6,29.78,SW,225,0.7,3.6,68,0.00,,,0.00,WUHU216HW,2013-07-18 00:04:00,
2013-07-17 20:09:00,86.4,74.6,29.78,WSW,248,0.0,3.6,68,0.00,,,0.00,WUHU216HW,2013-07-18 00:09:00,
2013-07-17 20:14:00,86.0,74.4,29.78,SW,225,1.8,2.2,68,0.00,,,0.00,WUHU216HW,2013-07-18 00:14:00,
2013-07-17 20:19:00,85.9,74.6,29.78,West,270,0.9,2.2,69,0.00,,,0.00,WUHU216HW,2013-07-18 00:19:00,
2013-07-17 20:24:00,85.7,74.4,29.78,West,270,0.2,2.0,69,0.00,,,0.00,WUHU216HW,2013-07-18 00:24:00,
2013-07-17 20:29:00,85.3,74.5,29.78,WSW,248,0.9,2.0,70,0.00,,,0.00,WUHU216HW,2013-07-18 00:29:00,
2013-07-17 20:34:00,85.1,74.3,29.78,WSW,248,0.9,1.8,70,0.00,,,0.00,WUHU216HW,2013-07-18 00:34:00,
2013-07-17 20:39:00,85.0,74.5,29.78,WSW,248,2.0,2.5,71,0.00,,,0.00,WUHU216HW,2013-07-18 00:39:00,
2013-07-17 20:44:00,84.6,74.2,29.78,West,270,0.0,2.5,71,0.00,,,0.00,WUHU216HW,2013-07-18 00:44:00,
2013-07-17 20:49:00,84.4,74.0,29.77,WSW,248,0.4,2.0,71,0.00,,,0.00,WUHU216HW,2013-07-18 00:49:00,
2013-07-17 20:54:00,84.2,74.3,29.78,WSW,248,0.2,1.3,72,0.00,,,0.00,WUHU216HW,2013-07-18 00:54:00,
2013-07-17 20:59:00,83.9,73.9,29.78,WSW,248,0.9,1.1,72,0.00,,,0.00,WUHU216HW,2013-07-18 00:59:00,
2013-07-17 21:04:00,83.7,73.7,29.78,WSW,248,0.7,1.1,72,0.00,,,0.00,WUHU216HW,2013-07-18 01:04:00,
2013-07-17 21:09:00,83.3,73.8,29.78,SW,225,0.0,1.1,73,0.00,,,0.00,WUHU216HW,2013-07-18 01:09:00,
2013-07-17 21:14:00,83.2,74.0,29.79,SW,225,0.0,1.1,74,0.00,,,0.00,WUHU216HW,2013-07-18 01:14:00,
2013-07-17 21:19:00,83.0,73.8,29.79,SW,225,0.4,0.9,74,0.00,,,0.00,WUHU216HW,2013-07-18 01:19:00,
2013-07-17 21:24:00,82.6,73.4,29.79,SW,225,0.0,0.9,74,0.00,,,0.00,WUHU216HW,2013-07-18 01:24:00,
2013-07-17 21:29:00,82.4,73.7,29.79,SW,225,0.0,0.7,75,0.00,,,0.00,WUHU216HW,2013-07-18 01:29:00,
2013-07-17 21:34:00,82.3,73.5,29.79,SW,225,0.0,0.0,75,0.00,,,0.00,WUHU216HW,2013-07-18 01:34:00,
2013-07-17 21:39:00,82.1,73.8,29.78,SW,225,0.0,0.0,76,0.00,,,0.00,WUHU216HW,2013-07-18 01:39:00,
2013-07-17 21:44:00,81.9,73.6,29.78,WNW,293,0.0,0.2,76,0.00,,,0.00,WUHU216HW,2013-07-18 01:44:00,
2013-07-17 21:49:00,81.7,73.8,29.78,WNW,293,0.0,0.2,77,0.00,,,0.00,WUHU216HW,2013-07-18 01:49:00,
2013-07-17 21:54:00,81.7,73.5,29.78,SW,225,0.9,0.9,76,0.00,,,0.00,WUHU216HW,2013-07-18 01:54:00,
2013-07-17 21:59:00,81.5,73.7,29.79,WSW,248,0.4,1.1,77,0.00,,,0.00,WUHU216HW,2013-07-18 01:59:00,
2013-07-17 22:04:00,81.4,73.5,29.78,WSW,248,0.0,1.1,77,0.00,,,0.00,WUHU216HW,2013-07-18 02:04:00,
2013-07-17 22:09:00,81.4,73.5,29.78,WSW,248,0.4,1.1,77,0.00,,,0.00,WUHU216HW,2013-07-18 02:09:00,
2013-07-17 22:14:00,81.0,73.5,29.78,West,270,0.0,1.1,78,0.00,,,0.00,WUHU216HW,2013-07-18 02:14:00,
2013-07-17 22:19:00,80.8,73.4,29.79,WSW,248,0.7,1.1,78,0.00,,,0.00,WUHU216HW,2013-07-18 02:19:00,
2013-07-17 22:24:00,80.8,73.4,29.78,WSW,248,0.9,1.1,78,0.00,,,0.00,WUHU216HW,2013-07-18 02:24:00,
2013-07-17 22:29:00,80.6,73.2,29.78,WSW,248,0.7,1.6,78,0.00,,,0.00,WUHU216HW,2013-07-18 02:29:00,
2013-07-17 22:34:00,80.5,73.5,29.78,WSW,248,0.7,1.6,79,0.00,,,0.00,WUHU216HW,2013-07-18 02:34:00,
2013-07-17 22:39:00,80.3,73.3,29.78,WSW,248,0.0,0.9,79,0.00,,,0.00,WUHU216HW,2013-07-18 02:39:00,
2013-07-17 22:44:00,80.3,73.6,29.78,WSW,248,0.0,0.7,80,0.00,,,0.00,WUHU216HW,2013-07-18 02:44:00,
2013-07-17 22:49:00,80.3,73.6,29.78,WSW,248,0.7,0.9,80,0.00,,,0.00,WUHU216HW,2013-07-18 02:49:00,
2013-07-17 22:54:00,80.3,74.0,29.78,WSW,248,0.0,1.3,81,0.00,,,0.00,WUHU216HW,2013-07-18 02:54:00,
2013-07-17 22:59:00,80.3,74.0,29.78,WSW,248,0.7,1.3,81,0.00,,,0.00,WUHU216HW,2013-07-18 02:59:00,
2013-07-17 23:04:00,80.3,74.0,29.79,SW,225,1.1,1.3,81,0.00,,,0.00,WUHU216HW,2013-07-18 03:04:00,
2013-07-17 23:09:00,80.3,74.0,29.78,West,270,1.6,2.0,81,0.00,,,0.00,WUHU216HW,2013-07-18 03:09:00,
2013-07-17 23:14:00,80.5,74.2,29.78,West,270,0.9,2.5,81,0.00,,,0.00,WUHU216HW,2013-07-18 03:14:00,
2013-07-17 23:19:00,80.5,74.2,29.78,WSW,248,1.1,2.5,81,0.00,,,0.00,WUHU216HW,2013-07-18 03:19:00,
2013-07-17 23:24:00,80.6,74.0,29.78,WSW,248,0.9,2.0,80,0.00,,,0.00,WUHU216HW,2013-07-18 03:24:00,
2013-07-17 23:29:00,80.5,73.8,29.78,WSW,248,1.1,1.8,80,0.00,,,0.00,WUHU216HW,2013-07-18 03:29:00,
2013-07-17 23:34:00,80.5,73.8,29.77,WSW,248,0.9,1.8,80,0.00,,,0.00,WUHU216HW,2013-07-18 03:34:00,
2013-07-17 23:39:00,80.5,73.8,29.77,WSW,248,0.9,2.0,80,0.00,,,0.00,WUHU216HW,2013-07-18 03:39:00,
2013-07-17 23:44:00,80.3,74.0,29.78,WNW,293,0.9,2.0,81,0.00,,,0.00,WUHU216HW,2013-07-18 03:44:00,
2013-07-17 23:49:00,80.3,73.6,29.78,WNW,293,0.9,1.6,80,0.00,,,0.00,WUHU216HW,2013-07-18 03:49:00,
2013-07-17 23:54:00,80.3,73.6,29.79,SSW,203,0.0,1.8,80,0.00,,,0.00,WUHU216HW,2013-07-18 03:54:00,
2013-07-17 23:59:00,80.3,73.6,29.79,SW,225,0.4,1.8,80,0.00,,,0.00,WUHU216HW,2013-07-18 03:59:00,